Pineville, MO (64856)

11:41 AM CST on February 10, 2016 (GMT -0600)
Brush Creek | | Change Station
CLOSE
Current Station
Personal Weather Station
Location: Noel, MO
Elevation: 1056 ft
Nearby Weather Stations

Elev 1056 ft 36.51 °N, 94.34 °W | Updated 8 seconds ago

Clear
Clear
40.5 °F
Feels Like 34 °F
N
10.3
Wind Variable Wind from SE
Gusts 12.3 mph

Today
High -- | Low -- °F
--% Chance of Precip.
Yesterday
High -- | Low -- °F
Precip. -- in
Pressure 30.16 in
Visibility 10.0 miles
Clouds Clear
Windchill 34 °F
Dew Point 12 °F
Humidity 31%
Rainfall 0.00 in
Snow Depth Not available.
7:11 AM 5:52 PM
Waxing Crescent, 6% visible
METAR KGMJ 101735Z AUTO 19012G17KT 10SM CLR 06/M08 A3016 RMK AO2
Pressure 30.16 in
Visibility 10.0 miles
Clouds Clear
Windchill 34 °F
Dew Point 12 °F
Humidity 31%
Rainfall 0.00 in
Snow Depth Not available.
7:11 AM 5:52 PM
Waxing Crescent, 6% visible
METAR KGMJ 101735Z AUTO 19012G17KT 10SM CLR 06/M08 A3016 RMK AO2

10-Day Weather Forecast

Almanac

Astronomy

Feb. 10, 2016 Rise Set
Actual Time
Civil Twilight
Nautical Twilight
Astronomical Twilight
Moon
Length of Visible Light
Length of Day
Tomorrow will be .
, % of the Moon is Illuminated

Today's Extremes

State Highs State Lows

Community

WunderPhotos

Upload Photos

1,891,898 photos uploaded!

WunderBlog® & News

Nearby

Air Quality

  Air Quality AQ Index Pollutant
Not available.

Snow Depth

Station Depth Elevation

Earthquake Activity

City Distance Mag. Time & Date
Minimum magnitude displayed is 2.5.

Coastal Water Temperatures

Place Temperature

Stations

Nearby Weather Stations

Station Location Temp. Windchill Dew Point Humidity Wind Precip. Elev Updated Type
                   

Watches & Warnings

There are currently no watches in effect.